Location: Peebles
(55.6412°N, 3.1714°W)
Time: 21:26:09
(UTC+01:00)

deb Kosmos-2123 - Pass Details

Date: 07 July 2022
Orbit: 942 x 985 km, 82.9° (Epoch: 17 August)

Event Time Altitude Azimuth Distance (km) Brightness Sun altitude
Exits shadow 23:03:48 - 115° (ESE) 3,529 ? -6.8°
Reaches altitude 10° 23:07:50 10° 86° (E) 2,739 ? -7.1°
Maximum altitude 23:09:39 11° 69° (ENE) 2,639 ? -7.2°
Drops below altitude 10° 23:11:27 10° 52° (NE) 2,738 ? -7.4°
Sets 23:16:03 0° 21° (NNE) 3,682 ? -7.7°
